TimePST,TemperatureF,Dew PointF,Humidity,Sea Level PressureIn,VisibilityMPH,Wind Direction,Wind SpeedMPH,Gust SpeedMPH,PrecipitationIn,Events,Conditions,WindDirDegrees,DateUTC
12:53 AM,39.9,36.0,86,30.21,8.0,South,11.5,-,0.03,Rain,Light Rain,170,2013-02-27 08:53:00
1:53 AM,39.9,37.0,89,30.22,10.0,South,8.1,-,0.01,,Overcast,180,2013-02-27 09:53:00
2:53 AM,39.9,37.0,89,30.23,10.0,SSW,10.4,-,N/A,,Overcast,210,2013-02-27 10:53:00
3:53 AM,39.0,36.0,89,30.24,10.0,South,10.4,-,N/A,,Overcast,190,2013-02-27 11:53:00
4:53 AM,39.0,36.0,89,30.27,10.0,South,6.9,-,N/A,,Mostly Cloudy,190,2013-02-27 12:53:00
5:03 AM,39.2,35.6,87,30.26,10.0,SSW,5.8,-,N/A,,Overcast,210,2013-02-27 13:03:00
5:15 AM,39.2,35.6,87,30.26,10.0,SSW,3.5,-,N/A,,Overcast,200,2013-02-27 13:15:00
5:53 AM,39.0,37.0,93,30.29,10.0,South,3.5,-,N/A,,Overcast,190,2013-02-27 13:53:00
6:53 AM,39.0,36.0,89,30.30,10.0,South,5.8,-,N/A,,Mostly Cloudy,180,2013-02-27 14:53:00
7:09 AM,39.2,35.6,87,30.29,10.0,South,6.9,-,N/A,,Mostly Cloudy,170,2013-02-27 15:09:00
7:53 AM,39.9,37.9,93,30.30,10.0,South,5.8,-,N/A,,Overcast,170,2013-02-27 15:53:00
8:01 AM,39.2,37.4,93,30.29,10.0,SSE,5.8,-,N/A,,Overcast,160,2013-02-27 16:01:00
8:22 AM,39.2,37.4,93,30.29,10.0,South,4.6,-,N/A,,Partly Cloudy,170,2013-02-27 16:22:00
8:53 AM,41.0,37.9,89,30.30,10.0,SSE,8.1,-,N/A,,Clear,160,2013-02-27 16:53:00
9:53 AM,44.1,36.0,73,30.28,10.0,South,11.5,-,N/A,,Partly Cloudy,170,2013-02-27 17:53:00
10:53 AM,44.1,35.1,71,30.29,10.0,Variable,5.8,-,N/A,,Mostly Cloudy,0,2013-02-27 18:53:00
11:00 AM,44.6,35.6,71,30.28,10.0,SSE,9.2,-,N/A,,Mostly Cloudy,160,2013-02-27 19:00:00
11:33 AM,46.4,35.6,66,30.30,10.0,SSW,9.2,-,N/A,,Overcast,200,2013-02-27 19:33:00
11:53 AM,46.9,34.0,61,30.30,10.0,South,9.2,-,N/A,,Overcast,170,2013-02-27 19:53:00
12:53 PM,48.0,35.1,61,30.30,10.0,South,9.2,-,N/A,,Mostly Cloudy,170,2013-02-27 20:53:00
1:53 PM,48.0,34.0,58,30.27,10.0,South,8.1,-,N/A,,Overcast,180,2013-02-27 21:53:00
2:53 PM,45.0,37.9,76,30.29,6.0,South,10.4,-,0.01,Rain,Rain,170,2013-02-27 22:53:00
3:53 PM,45.0,39.0,80,30.27,10.0,SSE,10.4,-,0.01,,Overcast,160,2013-02-27 23:53:00
4:00 PM,44.6,39.2,81,30.26,10.0,SSE,8.1,-,N/A,,Overcast,150,2013-02-28 00:00:00
4:53 PM,45.0,39.0,80,30.26,10.0,South,4.6,-,0.00,Rain,Light Rain,170,2013-02-28 00:53:00
5:53 PM,44.1,39.9,85,30.28,6.0,West,4.6,-,0.06,Rain,Light Rain,260,2013-02-28 01:53:00
5:59 PM,44.6,39.2,81,30.26,4.0,SSW,4.6,-,0.02,Rain,Rain,210,2013-02-28 01:59:00
6:14 PM,44.6,41.0,87,30.26,6.0,Calm,Calm,-,0.03,Rain,Light Rain,0,2013-02-28 02:14:00
6:37 PM,44.6,39.2,81,30.25,10.0,Calm,Calm,-,0.03,Rain,Light Rain,0,2013-02-28 02:37:00
6:53 PM,44.1,41.0,89,30.27,10.0,Calm,Calm,-,0.03,,Overcast,0,2013-02-28 02:53:00
7:38 PM,42.8,41.0,93,30.27,10.0,Calm,Calm,-,0.01,Rain,Light Rain,0,2013-02-28 03:38:00
7:53 PM,43.0,41.0,93,30.29,10.0,East,3.5,-,0.01,Rain,Light Rain,100,2013-02-28 03:53:00
8:53 PM,43.0,39.9,89,30.29,9.0,Variable,3.5,-,0.03,Rain,Light Rain,0,2013-02-28 04:53:00
9:53 PM,42.1,39.9,92,30.29,10.0,ESE,6.9,-,0.01,,Overcast,120,2013-02-28 05:53:00
10:53 PM,42.1,39.0,89,30.28,10.0,East,8.1,-,N/A,,Overcast,100,2013-02-28 06:53:00
11:53 PM,41.0,37.9,89,30.27,10.0,ESE,6.9,-,N/A,,Overcast,120,2013-02-28 07:53:00